Orbital elements of ONEWEB-0012
| Launched | 26 February 2019 |
| Flight ended | – |
| Launch site | Europe's Spaceport, Kourou, French Guiana |
| Owner | United Kingdom |
| NORAD ID | 44057 |
| Date fetched |
Epoch osculation |
Inc. [°] |
Ecc. | RA asc node [hr] |
Arg Peri. [°] |
Mean anom [°] |
Mean motion [rev/day] |
Abs. mag |
| Date fetched |
Epoch osculation |
Inc. [°] |
Ecc. | RA asc node [hr] |
Arg Peri. [°] |
Mean anom [°] |
Mean motion [rev/day] |
Abs. mag |
| 2026 May 05 17:57 | 2026 May 05 13:01:45 | 87.9097 | 0.00023 | 15.8168 | 102.5783 | 257.5610 | 13.16596 | – |
| 2026 May 04 17:57 | 2026 May 04 07:50:47 | 87.9096 | 0.00023 | 15.8329 | 103.0260 | 257.5610 | 13.16596 | – |
| 2026 May 03 17:57 | 2026 May 03 06:18:41 | 87.9092 | 0.00023 | 15.8470 | 103.3660 | 257.5610 | 13.16596 | – |
| 2026 May 02 17:57 | 2026 May 02 08:25:28 | 87.9090 | 0.00023 | 15.8591 | 103.9643 | 257.5610 | 13.16596 | – |
| 2026 May 01 17:56 | 2026 May 01 08:42:48 | 87.9089 | 0.00023 | 15.8722 | 104.5438 | 257.5610 | 13.16596 | – |
| 2026 Apr 30 17:56 | 2026 Apr 30 09:00:08 | 87.9087 | 0.00023 | 15.8853 | 105.0816 | 257.5610 | 13.16596 | – |
| 2026 Apr 29 17:57 | 2026 Apr 29 07:28:02 | 87.9086 | 0.00023 | 15.8994 | 105.6116 | 257.5610 | 13.16596 | – |
| 2026 Apr 28 17:56 | 2026 Apr 28 09:34:49 | 87.9084 | 0.00023 | 15.9115 | 105.9083 | 257.5610 | 13.16596 | – |
| 2026 Apr 27 17:58 | 2026 Apr 27 08:02:43 | 87.9084 | 0.00023 | 15.9256 | 106.4397 | 257.5610 | 13.16596 | – |
| 2026 Apr 26 17:58 | 2026 Apr 26 08:20:03 | 87.9084 | 0.00022 | 15.9387 | 106.7592 | 257.5610 | 13.16596 | – |
| 2026 Apr 25 17:58 | 2026 Apr 25 08:37:23 | 87.9082 | 0.00022 | 15.9517 | 107.7294 | 257.5610 | 13.16596 | – |
| 2026 Apr 24 17:59 | 2026 Apr 24 07:05:17 | 87.9087 | 0.00022 | 15.9659 | 107.5562 | 257.5610 | 13.16596 | – |
| 2026 Apr 23 17:57 | 2026 Apr 23 07:22:37 | 87.9082 | 0.00022 | 15.9790 | 108.2198 | 257.5610 | 13.16596 | – |
| 2026 Apr 22 17:57 | 2026 Apr 22 07:39:58 | 87.9077 | 0.00022 | 15.9921 | 108.4639 | 257.5610 | 13.16596 | – |
| 2026 Apr 21 17:57 | 2026 Apr 21 09:46:44 | 87.9073 | 0.00022 | 16.0042 | 108.8098 | 257.5610 | 13.16596 | – |
| 2026 Apr 20 17:57 | 2026 Apr 20 08:14:38 | 87.9072 | 0.00022 | 16.0183 | 109.2791 | 257.5610 | 13.16596 | – |
| 2026 Apr 19 17:58 | 2026 Apr 19 03:03:40 | 87.9071 | 0.00021 | 16.0344 | 110.0781 | 257.5610 | 13.16596 | – |
| 2026 Apr 18 17:56 | 2026 Apr 18 06:59:52 | 87.9070 | 0.00021 | 16.0455 | 110.1978 | 257.5610 | 13.16596 | – |
| 2026 Apr 16 17:57 | 2026 Apr 15 22:27:22 | 87.9064 | 0.00021 | 16.0767 | 110.8263 | 257.5610 | 13.16596 | – |
| 2026 Apr 14 17:57 | 2026 Apr 14 09:58:39 | 87.9060 | 0.00020 | 16.0969 | 111.4615 | 257.5610 | 13.16596 | – |
| 2026 Apr 13 17:57 | 2026 Apr 12 19:40:30 | 87.9056 | 0.00020 | 16.1181 | 112.3072 | 257.5610 | 13.16596 | – |
| 2026 Apr 12 17:57 | 2026 Apr 12 10:33:19 | 87.9055 | 0.00020 | 16.1231 | 112.4154 | 257.5610 | 13.16596 | – |
| 2026 Apr 11 17:57 | 2026 Apr 11 10:50:39 | 87.9053 | 0.00020 | 16.1363 | 111.2667 | 257.5610 | 13.16596 | – |
| 2026 Apr 10 17:58 | 2026 Apr 09 20:32:30 | 87.9051 | 0.00020 | 16.1574 | 112.4509 | 257.5610 | 13.16596 | – |
| 2026 Apr 09 18:01 | 2026 Apr 09 07:46:27 | 87.9050 | 0.00019 | 16.1645 | 112.5462 | 257.5610 | 13.16596 | – |
| 2026 Apr 08 17:57 | 2026 Apr 08 02:35:29 | 87.9048 | 0.00019 | 16.1806 | 113.2406 | 257.5610 | 13.16596 | – |